COSMOS 886 DEB, 15762

Orbit data source: Space-Track

COSMOS 886 DEB, 15762 is space debris in LEO originally from a launch on Mon, 27 Dec 1976 UTC launched from the Tyuratam Missile And Space Complex (TTMTR). Debris objects in space refer to the collection of defunct objects orbiting the Earth. Examples of debris include non-operational satellites, rocket bodies, and fragments generated from explosions, collisions, or faulty payload assembly.

Loading next visibility...
Identifier
15762, 1976-126BU
Orbit
LEO
Country
Flag of CISCIS
Related business
Manufacturer
Unknown
Mission
Spacecraft
Bus & Motor
Unknown
Mass
Unknown
Launch date (UTC)
1976-12-27 (49 years ago)
Launch vehicle
Unknown
Launch site
Tyuratam Missile And Space Complex (TTMTR)
Object type
Payload
Rocket body
Debris
Shape & HBR
Unknown shape, 0.1 m
Radar Cross Section
Small (<0.1 m²)

Expand to show TLE details & history
Last TLE update: 19 hours ago

TLE from 19 hours ago
0 COSMOS 886 DEB
1 15762U 76126BU  26129.71644770  .00000226  00000-0  57380-3 0  9995
2 15762  65.6624 270.6090 0743884 176.0300 184.7079 12.59441197697299
Epoch: 2026-05-09T17:11Z
TLE epoch observation values (Epoch: 2026-05-09T17:11:41.081Z)
Latitude
-0.00007°
Longitude
145.15791°
Altitude
2,005.965 km
Speed
6.636 km/s
True Right ascension
18h 02m 26s
True Declination
0° 00' 00"
Sunlit
Object was in full shadow at epoch
Visualization orbit readout
Latitude
Unknown
Longitude
Unknown
Altitude
Unknown
Speed
Unknown
Apparent Right ascension
Unknown
Apparent Declination
Unknown
Sunlit
N/A
Visualization observer readout
Local Sidereal Time
20:32:35
Azimuth
Unknown
Elevation
Unknown
Doppler factor
Unknown
Orbital elements
Apogee altitude
2,004.239 km
Perigee altitude
843.483 km
Semi-major axis
7,801.998 km
Eccentricity
0.07439
Inclination
65.6624°
RAAN
270.609°
Arg. of periapsis
176.03°
True anomaly
184.06779°
Mean anomaly
184.7079°
Eccentric anomaly
184.38223°
Mean motion
3.14945 °/min
Orbital period
114.31 mins
BSTAR
0.0005738
Loading maneuver chart data...
Computing Atmospheric mass density...
Loading historical data...
Loading historical data...
Loading historical data...
Loading historical data...
Loading historical data...
Loading historical data...
Loading historical data...

Documentation

Showing up to 5 results
|